This is the latest recevied weather packets stored in our database for station/object WX5RP. If no packets are shown the sender has not sent any weather packets the latest 10 day(s).
| Time | Temp. | Humidity | Pressure | Rain* | Wind** | Luminosity | Snow |
|---|---|---|---|---|---|---|---|
| 1777435516 | 10.56° C | 45% | 1019.5 hPa | 0 mm | - | 0 W/m² | - |
| 1777434916 | 11.11° C | 40% | 1018.8 hPa | 0 mm | - | 0 W/m² | - |
| 1777434316 | 11.67° C | 36% | 1018.7 hPa | 0 mm | - | 0 W/m² | - |
| 1777433716 | 11.67° C | 35% | 1018.3 hPa | 0 mm | - | 0 W/m² | - |
| 1777433116 | 11.67° C | 34% | 1017.6 hPa | 0 mm | - | 0 W/m² | - |
| 1777432516 | 12.22° C | 36% | 1017.3 hPa | 0 mm | - | 0 W/m² | - |
| 1777431917 | 12.22° C | 35% | 1018.4 hPa | 0 mm | - | 3 W/m² | - |
| 1777431316 | 12.78° C | 37% | 1017.7 hPa | 0 mm | - | 8 W/m² | - |
| 1777430716 | 13.33° C | 33% | 1017.7 hPa | 0 mm | - | 14 W/m² | - |
| 1777430116 | 13.33° C | 32% | 1017 hPa | 0 mm | - | 24 W/m² | - |
| 1777429516 | 13.89° C | 31% | 1016.5 hPa | 0 mm | - | 35 W/m² | - |
| 1777428916 | 14.44° C | 29% | 1016.5 hPa | 0 mm | - | 35 W/m² | - |
| 1777428316 | 15° C | 27% | 1017.9 hPa | 0 mm | - | 43 W/m² | - |
| 1777427716 | 15° C | 27% | 1017.6 hPa | 0 mm | - | 66 W/m² | - |
| 1777427116 | 15° C | 30% | 1017.6 hPa | 0 mm | - | 83 W/m² | - |
| 1777426516 | 15° C | 26% | 1017.6 hPa | 0 mm | - | 104 W/m² | - |
| 1777425916 | 15° C | 26% | 1017.4 hPa | 0 mm | - | 96 W/m² | - |
| 1777425315 | 15.56° C | 25% | 1017.3 hPa | 0 mm | - | 100 W/m² | - |
| 1777424715 | 16.67° C | 26% | 1018 hPa | 0 mm | - | 123 W/m² | - |
| 1777424116 | 16.11° C | 21% | 1018.1 hPa | 0 mm | - | 293 W/m² | - |
| 1777423515 | 16.67° C | 27% | 1018.8 hPa | 0 mm | - | 172 W/m² | - |
| 1777422918 | 17.22° C | 19% | 1018.4 hPa | 0 mm | - | 331 W/m² | - |
| 1777422317 | 17.22° C | 20% | 1018.4 hPa | 0 mm | - | 383 W/m² | - |
| 1777421717 | 17.78° C | 19% | 1018.4 hPa | 0 mm | - | 361 W/m² | - |
| 1777421117 | 17.22° C | 20% | 1018.1 hPa | 0 mm | - | 469 W/m² | - |
* Rain latest hour (hover to see other rain measurements)
** Current wind speed in m/s (hover to see current wind gust speed)